Location: Central Falls
(41.8900°N, 71.3929°W)
Time: 04:28:09
(UTC+00:00)

Tiros 1 - Pass Details

Date: 12 December 2023
Orbit: 625 x 658 km, 48.4° (Epoch: 01 March)

Event Time Altitude Azimuth Distance (km) Brightness Sun altitude
Rises 05:28:54 0° 213° (SSW) 2,942 - -68.5°
Reaches altitude 10° 05:31:22 10° 204° (SSW) 2,041 - -68.2°
Maximum altitude 05:35:38 34° 140° (SE) 1,062 - -67.8°
Drops below altitude 10° 05:39:56 10° 75° (ENE) 2,067 - -67.3°
Sets 05:42:27 0° 67° (ENE) 2,985 - -67.0°
